Total_Precipitation_Accumulation
0.10 0.06 0.02 0.01 0.01 0.01 0.01 0.00 0.00 0.00 0.00 0.01 0.01 0.00 0.00 0.00 0.00 0.01 0.03 0.03 0.04 0.05 0.03 0.04 0.04 0.01 0.01 0.02 0.08 0.17 0.25 0.26 0.38 0.44 0.42 0.38 0.31 0.22 0.12 0.04 0.03 0.02 0.00
0.10 0.09 0.05 0.03 0.02 0.01 0.01 0.00 0.00 0.00 0.01 0.01 0.01 0.00 0.00 0.00 0.00 0.00 0.03 0.03 0.05 0.09 0.08 0.11 0.10 0.06 0.05 0.05 0.08 0.16 0.23 0.24 0.29 0.36 0.44 0.51 0.53 0.39 0.22 0.10 0.09 0.06 0.03
0.14 0.13 0.11 0.07 0.05 0.04 0.03 0.01 0.00 0.00 0.00 0.01 0.00 0.00 0.00 0.00 0.00 0.00 0.01 0.02 0.04 0.10 0.17 0.22 0.23 0.19 0.14 0.12 0.11 0.15 0.21 0.23 0.24 0.30 0.34 0.35 0.35 0.36 0.31 0.22 0.20 0.18 0.14
0.27 0.22 0.17 0.16 0.14 0.10 0.07 0.04 0.01 0.00 0.00 0.00 0.00 0.00 0.00 0.00 0.00 0.00 0.00 0.00 0.01 0.05 0.12 0.19 0.29 0.36 0.32 0.24 0.15 0.12 0.12 0.14 0.15 0.17 0.17 0.16 0.16 0.19 0.24 0.26 0.28 0.32 0.30
0.46 0.38 0.36 0.37 0.37 0.30 0.18 0.09 0.04 0.01 0.01 0.01 0.00 0.00 0.00 0.00 0.00 0.00 0.00 0.00 0.00 0.00 0.01 0.04 0.11 0.14 0.22 0.29 0.21 0.12 0.09 0.08 0.08 0.08 0.08 0.07 0.08 0.10 0.14 0.20 0.24 0.27 0.30
0.83 0.70 0.67 0.59 0.52 0.45 0.37 0.28 0.17 0.09 0.04 0.02 0.00 0.00 0.00 0.00 0.00 0.00 0.00 0.00 0.00 0.00 0.00 0.00 0.02 0.02 0.08 0.23 0.26 0.14 0.08 0.07 0.08 0.07 0.05 0.05 0.05 0.05 0.07 0.11 0.13 0.16 0.19
1.03 0.99 0.92 0.83 0.69 0.58 0.55 0.53 0.45 0.30 0.17 0.07 0.07 0.06 0.03 0.01 0.00 0.00 0.00 0.00 0.00 0.00 0.00 0.00 0.02 0.03 0.03 0.04 0.07 0.09 0.09 0.10 0.12 0.10 0.07 0.05 0.04 0.03 0.04 0.05 0.07 0.09 0.10
1.00 0.93 1.02 1.07 0.93 0.86 0.83 0.84 0.75 0.61 0.40 0.21 0.28 0.36 0.22 0.13 0.04 0.01 0.00 0.00 0.00 0.00 0.00 0.00 0.00 0.00 0.01 0.03 0.01 0.03 0.06 0.09 0.08 0.07 0.04 0.03 0.03 0.02 0.02 0.02 0.03 0.05 0.06
1.26 1.16 1.18 1.26 1.11 1.01 0.96 0.94 0.86 0.92 0.83 0.57 0.48 0.63 0.48 0.36 0.29 0.07 0.01 0.00 0.00 0.00 0.00 0.00 0.00 0.00 0.00 0.01 0.01 0.01 0.02 0.03 0.04 0.04 0.03 0.02 0.02 0.01 0.02 0.03 0.05 0.05 0.05
1.49 1.33 1.25 1.21 1.16 1.10 0.98 0.84 0.88 1.06 1.23 1.08 0.85 0.70 0.55 0.42 0.37 0.24 0.08 0.01 0.00 0.01 0.00 0.00 0.00 0.00 0.01 0.00 0.01 0.01 0.01 0.01 0.04 0.06 0.04 0.03 0.02 0.02 0.03 0.04 0.05 0.05 0.04
1.48 1.34 1.21 1.12 1.10 1.09 1.03 0.98 1.02 1.13 1.27 1.37 1.25 0.95 0.71 0.56 0.37 0.32 0.26 0.14 0.05 0.01 0.01 0.00 0.00 0.00 0.00 0.00 0.01 0.00 0.01 0.01 0.03 0.06 0.06 0.04 0.03 0.03 0.03 0.03 0.03 0.04 0.02
1.29 1.26 1.20 1.07 0.97 0.92 0.91 0.97 1.11 1.12 1.16 1.24 1.20 0.98 0.79 0.66 0.60 0.53 0.41 0.35 0.25 0.07 0.01 0.01 0.00 0.00 0.00 0.00 0.00 0.01 0.01 0.01 0.03 0.04 0.04 0.03 0.02 0.02 0.02 0.02 0.03 0.03 0.02
1.04 1.06 1.04 0.96 0.83 0.75 0.75 0.85 0.94 0.89 0.86 0.91 0.92 0.84 0.77 0.69 0.63 0.58 0.53 0.51 0.45 0.22 0.08 0.02 0.01 0.00 0.00 0.00 0.00 0.01 0.02 0.02 0.02 0.03 0.03 0.02 0.02 0.02 0.03 0.03 0.04 0.05 0.03
0.82 0.75 0.75 0.74 0.70 0.66 0.64 0.68 0.69 0.63 0.59 0.62 0.60 0.56 0.54 0.58 0.63 0.57 0.52 0.55 0.51 0.44 0.29 0.09 0.03 0.02 0.01 0.00 0.00 0.01 0.01 0.02 0.02 0.03 0.03 0.02 0.01 0.01 0.02 0.04 0.06 0.07 0.05
0.53 0.53 0.57 0.60 0.60 0.56 0.52 0.52 0.52 0.49 0.46 0.44 0.44 0.44 0.42 0.45 0.52 0.55 0.54 0.50 0.46 0.45 0.43 0.25 0.12 0.06 0.04 0.02 0.02 0.01 0.00 0.01 0.02 0.03 0.02 0.01 0.01 0.01 0.01 0.01 0.02 0.03 0.02
0.44 0.46 0.46 0.45 0.45 0.44 0.43 0.45 0.46 0.46 0.43 0.42 0.42 0.43 0.42 0.40 0.44 0.47 0.52 0.54 0.49 0.44 0.42 0.31 0.20 0.11 0.11 0.08 0.08 0.03 0.01 0.01 0.02 0.02 0.02 0.01 0.01 0.01 0.01 0.01 0.01 0.01 0.01
0.41 0.40 0.35 0.35 0.43 0.42 0.38 0.42 0.43 0.41 0.40 0.40 0.38 0.38 0.42 0.47 0.45 0.43 0.48 0.51 0.53 0.51 0.43 0.37 0.22 0.14 0.15 0.14 0.17 0.09 0.04 0.03 0.04 0.04 0.03 0.01 0.01 0.01 0.01 0.01 0.01 0.01 0.01
0.31 0.36 0.34 0.32 0.42 0.52 0.54 0.51 0.47 0.41 0.37 0.32 0.28 0.27 0.28 0.32 0.37 0.41 0.45 0.44 0.46 0.47 0.42 0.38 0.30 0.22 0.23 0.21 0.22 0.19 0.13 0.09 0.09 0.14 0.16 0.08 0.05 0.05 0.04 0.02 0.01 0.01 0.01
0.27 0.29 0.39 0.36 0.38 0.45 0.53 0.51 0.45 0.40 0.35 0.30 0.28 0.27 0.24 0.24 0.30 0.33 0.40 0.47 0.47 0.44 0.42 0.35 0.36 0.35 0.29 0.26 0.26 0.22 0.19 0.20 0.18 0.18 0.27 0.23 0.16 0.12 0.08 0.06 0.05 0.03 0.02
0.34 0.32 0.30 0.29 0.34 0.41 0.49 0.43 0.37 0.35 0.31 0.28 0.29 0.28 0.25 0.26 0.26 0.30 0.36 0.47 0.53 0.55 0.51 0.42 0.39 0.39 0.34 0.30 0.25 0.25 0.29 0.31 0.29 0.25 0.26 0.30 0.29 0.22 0.18 0.16 0.13 0.10 0.07
0.21 0.23 0.19 0.18 0.23 0.30 0.32 0.29 0.26 0.24 0.28 0.29 0.27 0.26 0.27 0.24 0.21 0.24 0.25 0.35 0.43 0.53 0.56 0.55 0.50 0.44 0.37 0.32 0.27 0.28 0.29 0.34 0.31 0.32 0.31 0.29 0.30 0.28 0.27 0.23 0.19 0.17 0.16
0.09 0.14 0.13 0.14 0.17 0.19 0.21 0.17 0.18 0.22 0.26 0.29 0.28 0.27 0.27 0.25 0.21 0.17 0.13 0.14 0.21 0.29 0.39 0.47 0.52 0.48 0.46 0.40 0.36 0.32 0.28 0.29 0.29 0.32 0.30 0.32 0.33 0.32 0.31 0.27 0.29 0.31 0.25
0.06 0.08 0.08 0.12 0.14 0.11 0.10 0.07 0.17 0.29 0.30 0.26 0.24 0.29 0.31 0.29 0.31 0.31 0.24 0.16 0.16 0.15 0.16 0.22 0.31 0.36 0.38 0.40 0.34 0.29 0.27 0.31 0.31 0.30 0.27 0.26 0.26 0.25 0.24 0.21 0.22 0.23 0.24
0.03 0.06 0.07 0.13 0.12 0.07 0.06 0.06 0.12 0.21 0.26 0.25 0.21 0.25 0.35 0.40 0.44 0.44 0.34 0.29 0.24 0.21 0.15 0.10 0.17 0.23 0.25 0.31 0.31 0.30 0.28 0.24 0.21 0.18 0.15 0.13 0.13 0.14 0.14 0.15 0.15 0.14 0.14
0.01 0.05 0.07 0.09 0.06 0.03 0.02 0.04 0.08 0.20 0.27 0.27 0.22 0.26 0.35 0.43 0.54 0.51 0.39 0.37 0.34 0.25 0.20 0.18 0.15 0.14 0.17 0.21 0.23 0.26 0.28 0.25 0.22 0.20 0.15 0.11 0.10 0.09 0.08 0.09 0.08 0.07 0.07
0.00 0.01 0.03 0.04 0.04 0.03 0.02 0.02 0.04 0.11 0.18 0.23 0.24 0.28 0.39 0.42 0.48 0.43 0.34 0.45 0.49 0.35 0.22 0.23 0.25 0.25 0.23 0.27 0.33 0.34 0.42 0.42 0.36 0.32 0.24 0.19 0.18 0.17 0.16 0.14 0.09 0.05 0.03